,,Stat6,,Stat2,,Stat8,,Stat9,,Stat10,,Wind1,,Wind1,
time,status,PA1M_AVG,status,PR1M_SUM,status,RH1M_AVG,status,SR1M_AVG,status,TA1M_AVG,status,W1dAve1m,status,W1sAve1m,
2005-03-10, 00:00:00,VALID,920.358,VALID,0,VALID,100,VALID,0,VALID,19.3853,VALID,73,VALID,0.772321,
2005-03-10, 00:01:00,VALID,920.351,VALID,0,VALID,100,VALID,0,VALID,19.3888,VALID,85,VALID,0.750355,
2005-03-10, 00:02:00,VALID,920.364,VALID,0,VALID,100,VALID,0,VALID,19.4176,VALID,96,VALID,0.833203,
2005-03-10, 00:03:00,VALID,920.366,VALID,0,VALID,100,VALID,0,VALID,19.4171,VALID,93,VALID,0.814986,
2005-03-10, 00:04:00,VALID,920.37,VALID,0,VALID,100,VALID,0.0169808,VALID,19.4275,VALID,92,VALID,0.925686,
2005-03-10, 00:05:00,VALID,920.365,VALID,0,VALID,100,VALID,0,VALID,19.4563,VALID,95,VALID,0.750888,
2005-03-10, 00:06:00,VALID,920.36,VALID,0,VALID,100,VALID,0.0169808,VALID,19.4593,VALID,92,VALID,0.796693,
2005-03-10, 00:07:00,VALID,920.347,VALID,0,VALID,100,VALID,-0.0169808,VALID,19.463,VALID,87,VALID,0.800951,
2005-03-10, 00:08:00,VALID,920.337,VALID,0,VALID,100,VALID,-0.0169808,VALID,19.4663,VALID,80,VALID,0.797057,
2005-03-10, 00:09:00,VALID,920.334,VALID,0,VALID,100,VALID,-0.0849042,VALID,19.4926,VALID,78,VALID,0.809443,
2005-03-10, 00:10:00,VALID,920.346,VALID,0,VALID,100,VALID,-0.0339617,VALID,19.5087,VALID,78,VALID,0.642912,
2005-03-10, 00:11:00,VALID,920.36,VALID,0,VALID,99.9654,VALID,-0.0849042,VALID,19.4993,VALID,71,VALID,0.560938,
2005-03-10, 00:12:00,VALID,920.378,VALID,0,VALID,99.8337,VALID,-0.0849042,VALID,19.4764,VALID,71,VALID,0.617378,
2005-03-10, 00:13:00,VALID,920.392,VALID,0,VALID,99.8706,VALID,-0.0679233,VALID,19.47,VALID,83,VALID,0.429874,
2005-03-10, 00:14:00,VALID,920.4,VALID,0,VALID,99.9265,VALID,-0.0509425,VALID,19.4667,VALID,83,VALID,0.475109,
2005-03-10, 00:15:00,VALID,920.412,VALID,0,VALID,99.9545,VALID,-0.0509425,VALID,19.473,VALID,83,VALID,0.375,
2005-03-10, 00:16:00,VALID,920.39,VALID,0,VALID,99.9379,VALID,-0.0679233,VALID,19.4466,VALID,81,VALID,0.605097,
2005-03-10, 00:17:00,VALID,920.364,VALID,0,VALID,99.8197,VALID,0,VALID,19.4372,VALID,67,VALID,0.902798,
2005-03-10, 00:18:00,VALID,920.351,VALID,0,VALID,99.8477,VALID,-0.0339617,VALID,19.4337,VALID,74,VALID,0.595203,
2005-03-10, 00:19:00,VALID,920.327,VALID,0,VALID,99.7447,VALID,-0.0509425,VALID,19.4213,VALID,84,VALID,0.664608,
2005-03-10, 00:20:00,VALID,920.315,VALID,0,VALID,99.7319,VALID,-0.0509425,VALID,19.4178,VALID,90,VALID,0.83133,
2005-03-10, 00:21:00,VALID,920.291,VALID,0,VALID,99.6849,VALID,-0.0339617,VALID,19.4017,VALID,82,VALID,0.574777,
2005-03-10, 00:22:00,VALID,920.284,VALID,0,VALID,99.5883,VALID,-0.0679233,VALID,19.3989,VALID,73,VALID,0.688953,
2005-03-10, 00:23:00,VALID,920.259,VALID,0,VALID,99.4675,VALID,0.0339617,VALID,19.3818,VALID,68,VALID,0.659702,
2005-03-10, 00:24:00,VALID,920.259,VALID,0,VALID,99.5094,VALID,0.0849042,VALID,19.3744,VALID,68,VALID,0.395833,
2005-03-10, 00:25:00,VALID,920.24,VALID,0,VALID,99.5768,VALID,0.0509425,VALID,19.3642,VALID,76,VALID,0.949855,
2005-03-10, 00:26:00,VALID,920.226,VALID,0,VALID,99.5552,VALID,0.0509425,VALID,19.3813,VALID,84,VALID,1.02744,
2005-03-10, 00:27:00,VALID,920.216,VALID,0,VALID,99.5463,VALID,0.0679233,VALID,19.3873,VALID,83,VALID,1.00373,
2005-03-10, 00:28:00,VALID,920.22,VALID,0,VALID,99.208,VALID,0.0679233,VALID,19.3582,VALID,54,VALID,1.2337,
2005-03-10, 00:29:00,VALID,920.198,VALID,0,VALID,99.3085,VALID,0.0849042,VALID,19.3456,VALID,68,VALID,1.07244,
2005-03-10, 00:30:00,VALID,920.179,VALID,0,VALID,99.3657,VALID,0.101885,VALID,19.3218,VALID,67,VALID,0.980824,
2005-03-10, 00:31:00,VALID,920.172,VALID,0,VALID,99.3479,VALID,0.0849042,VALID,19.3163,VALID,69,VALID,1.13725,
2005-03-10, 00:32:00,VALID,920.142,VALID,0,VALID,99.6289,VALID,0.0679233,VALID,19.2939,VALID,71,VALID,1.18674,
2005-03-10, 00:33:00,VALID,920.102,VALID,0,VALID,99.8362,VALID,0.0679233,VALID,19.287,VALID,90,VALID,1.24073,
2005-03-10, 00:34:00,VALID,920.064,VALID,0,VALID,99.9654,VALID,0.0849042,VALID,19.2902,VALID,97,VALID,1.18064,
2005-03-10, 00:35:00,VALID,920.053,VALID,0,VALID,99.8973,VALID,0.0679233,VALID,19.2683,VALID,83,VALID,0.951672,
2005-03-10, 00:36:00,VALID,920.058,VALID,0,VALID,99.9842,VALID,0.0509425,VALID,19.2455,VALID,92,VALID,1.05,
2005-03-10, 00:37:00,VALID,920.059,VALID,0,VALID,99.9977,VALID,0.0509425,VALID,19.216,VALID,96,VALID,0.952035,
2005-03-10, 00:38:00,VALID,920.058,VALID,0,VALID,100,VALID,-0.0339617,VALID,19.195,VALID,100,VALID,0.880952,
2005-03-10, 00:39:00,VALID,920.045,VALID,0,VALID,100,VALID,-0.135847,VALID,19.1803,VALID,106,VALID,1.19648,
2005-03-10, 00:40:00,VALID,920.035,VALID,0,VALID,100,VALID,-0.135847,VALID,19.1702,VALID,109,VALID,1.34851,
2005-03-10, 00:41:00,VALID,920.019,VALID,0,VALID,100,VALID,-0.118866,VALID,19.1644,VALID,90,VALID,1.41779,
2005-03-10, 00:42:00,VALID,920.013,VALID,0,VALID,100,VALID,-0.118866,VALID,19.1607,VALID,98,VALID,1.10156,
2005-03-10, 00:43:00,VALID,920.009,VALID,0,VALID,100,VALID,-0.118866,VALID,19.1545,VALID,93,VALID,0.989062,
2005-03-10, 00:44:00,VALID,920.014,VALID,0,VALID,100,VALID,-0.118866,VALID,19.1548,VALID,90,VALID,0.951451,
2005-03-10, 00:45:00,VALID,920.019,VALID,0,VALID,100,VALID,-0.101885,VALID,19.1257,VALID,91,VALID,0.783913,
2005-03-10, 00:46:00,VALID,920.037,VALID,0,VALID,100,VALID,-0.101885,VALID,19.123,VALID,79,VALID,0.539258,
2005-03-10, 00:47:00,VALID,920.046,VALID,0,VALID,100,VALID,-0.169808,VALID,19.1063,VALID,86,VALID,0.646701,
2005-03-10, 00:48:00,VALID,920.057,VALID,0,VALID,100,VALID,-0.118866,VALID,19.1163,VALID,81,VALID,0.816315,
2005-03-10, 00:49:00,VALID,920.04,VALID,0,VALID,100,VALID,-0.118866,VALID,19.1354,VALID,88,VALID,0.737891,
2005-03-10, 00:50:00,VALID,920.017,VALID,0,VALID,100,VALID,-0.152827,VALID,19.1324,VALID,103,VALID,0.858803,
2005-03-10, 00:51:00,VALID,919.978,VALID,0,VALID,100,VALID,-0.118866,VALID,19.1389,VALID,106,VALID,0.897693,
2005-03-10, 00:52:00,VALID,919.979,VALID,0,VALID,100,VALID,-0.118866,VALID,19.1255,VALID,107,VALID,0.805596,
2005-03-10, 00:53:00,VALID,919.943,VALID,0,VALID,100,VALID,-0.101885,VALID,19.1054,VALID,99,VALID,0.961119,
2005-03-10, 00:54:00,VALID,919.941,VALID,0,VALID,100,VALID,-0.0679233,VALID,19.1146,VALID,86,VALID,0.958394,
2005-03-10, 00:55:00,VALID,919.926,VALID,0,VALID,100,VALID,-0.0339617,VALID,19.1046,VALID,92,VALID,0.817336,
2005-03-10, 00:56:00,VALID,919.921,VALID,0,VALID,100,VALID,-0.0169808,VALID,19.1014,VALID,94,VALID,0.761161,
2005-03-10, 00:57:00,VALID,919.921,VALID,0,VALID,100,VALID,-0.0169808,VALID,19.0989,VALID,87,VALID,0.82848,
2005-03-10, 00:58:00,VALID,919.92,VALID,0,VALID,100,VALID,-0.0509425,VALID,19.092,VALID,104,VALID,0.973772,
2005-03-10, 00:59:00,VALID,919.906,VALID,0,VALID,100,VALID,0,VALID,19.1245,VALID,102,VALID,1.10085,
2005-03-10, 01:00:00,VALID,919.888,VALID,0,VALID,100,VALID,-0.0339617,VALID,19.1374,VALID,112,VALID,1.12444,
2005-03-10, 01:01:00,VALID,919.858,VALID,0,VALID,100,VALID,-0.0339617,VALID,19.1695,VALID,122,VALID,1.06559,
2005-03-10, 01:02:00,VALID,919.836,VALID,0,VALID,99.9677,VALID,-0.0339617,VALID,19.202,VALID,118,VALID,1.09446,
2005-03-10, 01:03:00,VALID,919.819,VALID,0,VALID,99.8032,VALID,-0.0849042,VALID,19.2276,VALID,112,VALID,1.17543,
2005-03-10, 01:04:00,VALID,919.793,VALID,0,VALID,99.6366,VALID,-0.0339617,VALID,19.2666,VALID,112,VALID,1.51599,
2005-03-10, 01:05:00,VALID,919.802,VALID,0,VALID,99.4662,VALID,-0.0339617,VALID,19.3048,VALID,120,VALID,1.28604,
2005-03-10, 01:06:00,VALID,919.793,VALID,0,VALID,99.1661,VALID,-0.0509425,VALID,19.3473,VALID,109,VALID,1.00763,
2005-03-10, 01:07:00,VALID,919.814,VALID,0,VALID,99.0567,VALID,-0.0339617,VALID,19.3632,VALID,117,VALID,1.03797,
2005-03-10, 01:08:00,VALID,919.814,VALID,0,VALID,98.9842,VALID,-0.0169808,VALID,19.3925,VALID,123,VALID,1.22266,
2005-03-10, 01:09:00,VALID,919.82,VALID,0,VALID,98.9664,VALID,-0.0169808,VALID,19.4345,VALID,119,VALID,1.00283,
2005-03-10, 01:10:00,VALID,919.798,VALID,0,VALID,98.5913,VALID,0,VALID,19.4566,VALID,108,VALID,0.850694,
2005-03-10, 01:11:00,VALID,919.778,VALID,0,VALID,98.5557,VALID,-0.0339617,VALID,19.4665,VALID,109,VALID,1.26154,
2005-03-10, 01:12:00,VALID,919.746,VALID,0,VALID,98.529,VALID,0,VALID,19.5013,VALID,113,VALID,1.39004,
2005-03-10, 01:13:00,VALID,919.747,VALID,0,VALID,98.3561,VALID,0,VALID,19.5276,VALID,117,VALID,1.27559,
2005-03-10, 01:14:00,VALID,919.746,VALID,0,VALID,98.295,VALID,-0.0169808,VALID,19.5601,VALID,114,VALID,0.666481,
2005-03-10, 01:15:00,VALID,919.766,VALID,0,VALID,98.1424,VALID,0,VALID,19.5502,VALID,101,VALID,0.611506,
2005-03-10, 01:16:00,VALID,919.778,VALID,0,VALID,98.206,VALID,0,VALID,19.5664,VALID,111,VALID,0.744444,
2005-03-10, 01:17:00,VALID,919.775,VALID,0,VALID,98.2467,VALID,-0.0509425,VALID,19.5793,VALID,130,VALID,0.714753,
2005-03-10, 01:18:00,VALID,919.776,VALID,0,VALID,98.1628,VALID,-0.0169808,VALID,19.5862,VALID,131,VALID,0.75,
2005-03-10, 01:19:00,VALID,919.76,VALID,0,VALID,98.1539,VALID,0,VALID,19.586,VALID,114,VALID,0.759909,
2005-03-10, 01:20:00,VALID,919.748,VALID,0,VALID,98.131,VALID,0,VALID,19.586,VALID,99,VALID,0.73137,
2005-03-10, 01:21:00,VALID,919.74,VALID,0,VALID,98.0763,VALID,-0.0169808,VALID,19.5567,VALID,91,VALID,0.461119,
2005-03-10, 01:22:00,VALID,919.749,VALID,0,VALID,98.2467,VALID,0,VALID,19.5502,VALID,91,VALID,0.575893,
2005-03-10, 01:23:00,VALID,919.76,VALID,0,VALID,98.4146,VALID,-0.0169808,VALID,19.5577,VALID,88,VALID,0.701637,
2005-03-10, 01:24:00,VALID,919.765,VALID,0,VALID,98.3904,VALID,-0.101885,VALID,19.545,VALID,77,VALID,0.378348,
2005-03-10, 01:25:00,VALID,919.764,VALID,0,VALID,98.5964,VALID,-0.118866,VALID,19.5485,VALID,101,VALID,0.728561,
2005-03-10, 01:26:00,VALID,919.764,VALID,0,VALID,98.6422,VALID,-0.101885,VALID,19.5812,VALID,93,VALID,0.634055,
2005-03-10, 01:27:00,VALID,919.748,VALID,0,VALID,98.5048,VALID,-0.101885,VALID,19.6031,VALID,101,VALID,0.307031,
2005-03-10, 01:28:00,VALID,919.751,VALID,0,VALID,98.5137,VALID,-0.118866,VALID,19.6066,VALID,101,VALID,0.553886,
2005-03-10, 01:29:00,VALID,919.735,VALID,0,VALID,98.5328,VALID,-0.101885,VALID,19.6227,VALID,80,VALID,0.595749,
2005-03-10, 01:30:00,VALID,919.731,VALID,0,VALID,98.4247,VALID,-0.101885,VALID,19.6255,VALID,68,VALID,0.308398,
2005-03-10, 01:31:00,VALID,919.724,VALID,0,VALID,98.3815,VALID,-0.101885,VALID,19.6394,VALID,67,VALID,0.0117188,
2005-03-10, 01:32:00,VALID,919.708,VALID,0,VALID,98.4069,VALID,-0.101885,VALID,19.6257,VALID,67,VALID,0,
2005-03-10, 01:33:00,VALID,919.695,VALID,0,VALID,98.4464,VALID,-0.101885,VALID,19.6197,VALID,67,VALID,0,
2005-03-10, 01:34:00,VALID,919.664,VALID,0,VALID,98.4794,VALID,-0.0849042,VALID,19.5964,VALID,67,VALID,0.0112179,
2005-03-10, 01:35:00,VALID,919.652,VALID,0,VALID,98.3421,VALID,-0.101885,VALID,19.5544,VALID,67,VALID,0.0767361,
2005-03-10, 01:36:00,VALID,919.635,VALID,0,VALID,98.351,VALID,-0.0849042,VALID,19.5159,VALID,68,VALID,0.37965,
2005-03-10, 01:37:00,VALID,919.632,VALID,0,VALID,98.5099,VALID,-0.101885,VALID,19.4898,VALID,68,VALID,0.194196,
2005-03-10, 01:38:00,VALID,919.641,VALID,0,VALID,98.6651,VALID,-0.0509425,VALID,19.4603,VALID,68,VALID,0.0288318,
2005-03-10, 01:39:00,VALID,919.652,VALID,0,VALID,98.7922,VALID,0.0169808,VALID,19.4499,VALID,68,VALID,0.415516,
2005-03-10, 01:40:00,VALID,919.645,VALID,0,VALID,98.7541,VALID,0,VALID,19.4176,VALID,67,VALID,0.462305,
2005-03-10, 01:41:00,VALID,919.636,VALID,0,VALID,98.7236,VALID,0,VALID,19.3955,VALID,67,VALID,0.105035,
2005-03-10, 01:42:00,VALID,919.623,VALID,0,VALID,98.8202,VALID,0,VALID,19.3528,VALID,67,VALID,0.00090843,
2005-03-10, 01:43:00,VALID,919.604,VALID,0,VALID,98.9016,VALID,0,VALID,19.3302,VALID,67,VALID,0.102896,
2005-03-10, 01:44:00,VALID,919.593,VALID,0,VALID,98.9105,VALID,0,VALID,19.3145,VALID,67,VALID,0.501215,
2005-03-10, 01:45:00,VALID,919.574,VALID,0,VALID,99.0198,VALID,-0.0169808,VALID,19.2854,VALID,67,VALID,0.583394,
2005-03-10, 01:46:00,VALID,919.554,VALID,0,VALID,99.2017,VALID,0.0169808,VALID,19.2887,VALID,67,VALID,0.673264,
2005-03-10, 01:47:00,VALID,919.541,VALID,0,VALID,99.3047,VALID,0,VALID,19.2827,VALID,67,VALID,0.637536,
2005-03-10, 01:48:00,VALID,919.511,VALID,0,VALID,99.2907,VALID,0,VALID,19.2822,VALID,67,VALID,0.699041,
2005-03-10, 01:49:00,VALID,919.487,VALID,0,VALID,99.3886,VALID,0.0169808,VALID,19.2695,VALID,77,VALID,0.902344,
2005-03-10, 01:50:00,VALID,919.448,VALID,0,VALID,99.4306,VALID,0,VALID,19.2663,VALID,94,VALID,0.925977,
2005-03-10, 01:51:00,VALID,919.423,VALID,0,VALID,99.3594,VALID,-0.0169808,VALID,19.2758,VALID,96,VALID,0.879383,
2005-03-10, 01:52:00,VALID,919.403,VALID,0,VALID,99.395,VALID,0,VALID,19.2728,VALID,103,VALID,0.921684,
2005-03-10, 01:53:00,VALID,919.373,VALID,0,VALID,99.4357,VALID,0,VALID,19.2691,VALID,103,VALID,0.902158,
2005-03-10, 01:54:00,VALID,919.357,VALID,0,VALID,99.3861,VALID,0,VALID,19.2725,VALID,110,VALID,0.905664,
2005-03-10, 01:55:00,VALID,919.369,VALID,0,VALID,99.3301,VALID,0.0509425,VALID,19.2589,VALID,115,VALID,0.663517,
2005-03-10, 01:56:00,VALID,919.368,VALID,0,VALID,99.236,VALID,0,VALID,19.24,VALID,117,VALID,0.486281,
2005-03-10, 01:57:00,VALID,919.392,VALID,0,VALID,99.1559,VALID,0.0169808,VALID,19.2209,VALID,120,VALID,0.529978,
2005-03-10, 01:58:00,VALID,919.409,VALID,0,VALID,99.3556,VALID,0.0169808,VALID,19.1923,VALID,121,VALID,0.678597,
2005-03-10, 01:59:00,VALID,919.413,VALID,0,VALID,99.7154,VALID,0,VALID,19.1918,VALID,133,VALID,0.790015,
2005-03-10, 02:00:00,VALID,919.426,VALID,0,VALID,99.9278,VALID,0.0169808,VALID,19.2174,VALID,136,VALID,0.775746,
2005-03-10, 02:01:00,VALID,919.432,VALID,0,VALID,99.9138,VALID,0,VALID,19.2204,VALID,136,VALID,0.400746,
2005-03-10, 02:02:00,VALID,919.423,VALID,0,VALID,99.8807,VALID,0,VALID,19.2306,VALID,138,VALID,0.401242,
2005-03-10, 02:03:00,VALID,919.406,VALID,0,VALID,99.9405,VALID,0.0339617,VALID,19.2169,VALID,141,VALID,0.548399,
2005-03-10, 02:04:00,VALID,919.384,VALID,0,VALID,99.957,VALID,0.0169808,VALID,19.2276,VALID,129,VALID,0.708097,
2005-03-10, 02:05:00,VALID,919.36,VALID,0,VALID,99.988,VALID,0.0169808,VALID,19.2271,VALID,131,VALID,0.927507,
2005-03-10, 02:06:00,VALID,919.344,VALID,0,VALID,100,VALID,0.0169808,VALID,19.2335,VALID,130,VALID,0.974466,
2005-03-10, 02:07:00,VALID,919.309,VALID,0,VALID,100,VALID,0,VALID,19.2532,VALID,132,VALID,1.07049,
2005-03-10, 02:08:00,VALID,919.288,VALID,0,VALID,100,VALID,0,VALID,19.2624,VALID,129,VALID,1.03826,
2005-03-10, 02:09:00,VALID,919.265,VALID,0,VALID,100,VALID,-0.0169808,VALID,19.272,VALID,127,VALID,1.2358,
2005-03-10, 02:10:00,VALID,919.244,VALID,0,VALID,100,VALID,-0.0339617,VALID,19.2854,VALID,127,VALID,1.00309,
2005-03-10, 02:11:00,VALID,919.232,VALID,0,VALID,99.9853,VALID,0,VALID,19.2921,VALID,131,VALID,1.39249,
2005-03-10, 02:12:00,VALID,919.211,VALID,0,VALID,99.8909,VALID,0,VALID,19.2917,VALID,133,VALID,1.30384,
2005-03-10, 02:13:00,VALID,919.206,VALID,0,VALID,99.765,VALID,0,VALID,19.2921,VALID,134,VALID,1.34866,
2005-03-10, 02:14:00,VALID,919.206,VALID,0,VALID,99.7396,VALID,0,VALID,19.2884,VALID,131,VALID,1.26944,
2005-03-10, 02:15:00,VALID,919.213,VALID,0,VALID,99.6124,VALID,0,VALID,19.308,VALID,116,VALID,0.750363,
2005-03-10, 02:16:00,VALID,919.209,VALID,0,VALID,99.5374,VALID,-0.0169808,VALID,19.318,VALID,122,VALID,0.453852,
2005-03-10, 02:17:00,VALID,919.205,VALID,0,VALID,99.4764,VALID,-0.0169808,VALID,19.3177,VALID,124,VALID,0.555596,
2005-03-10, 02:18:00,VALID,919.207,VALID,0,VALID,99.4102,VALID,0,VALID,19.3281,VALID,127,VALID,0.476389,
2005-03-10, 02:19:00,VALID,919.196,VALID,0,VALID,99.3619,VALID,0,VALID,19.3048,VALID,129,VALID,0.33724,
2005-03-10, 02:20:00,VALID,919.176,VALID,0,VALID,99.2831,VALID,0,VALID,19.315,VALID,119,VALID,0.489397,
2005-03-10, 02:21:00,VALID,919.166,VALID,0,VALID,99.1839,VALID,-0.0169808,VALID,19.2688,VALID,101,VALID,0.278582,
2005-03-10, 02:22:00,VALID,919.15,VALID,0,VALID,99.1597,VALID,0,VALID,19.2628,VALID,89,VALID,0.375801,
2005-03-10, 02:23:00,VALID,919.128,VALID,0,VALID,99.3009,VALID,-0.0169808,VALID,19.2564,VALID,90,VALID,0.605183,
2005-03-10, 02:24:00,VALID,919.111,VALID,0,VALID,99.3377,VALID,0,VALID,19.276,VALID,92,VALID,0.310213,
2005-03-10, 02:25:00,VALID,919.098,VALID,0,VALID,99.1406,VALID,-0.0169808,VALID,19.2698,VALID,93,VALID,0.115007,
2005-03-10, 02:26:00,VALID,919.081,VALID,0,VALID,99.1928,VALID,-0.0339617,VALID,19.2695,VALID,115,VALID,0.809896,
2005-03-10, 02:27:00,VALID,919.065,VALID,0,VALID,99.1457,VALID,-0.0169808,VALID,19.2822,VALID,122,VALID,0.848656,
2005-03-10, 02:28:00,VALID,919.042,VALID,0,VALID,99.0644,VALID,0,VALID,19.3177,VALID,121,VALID,0.813772,
2005-03-10, 02:29:00,VALID,919.017,VALID,0,VALID,98.9601,VALID,0,VALID,19.3599,VALID,122,VALID,0.694404,
2005-03-10, 02:30:00,VALID,918.983,VALID,0,VALID,98.7668,VALID,0,VALID,19.3821,VALID,127,VALID,0.677507,
2005-03-10, 02:31:00,VALID,918.968,VALID,0,VALID,98.585,VALID,0,VALID,19.3918,VALID,124,VALID,0.85625,
2005-03-10, 02:32:00,VALID,918.953,VALID,0,VALID,98.4616,VALID,-0.0509425,VALID,19.4305,VALID,124,VALID,0.649771,
2005-03-10, 02:33:00,VALID,918.94,VALID,0,VALID,98.3497,VALID,-0.0169808,VALID,19.4461,VALID,94,VALID,0.456597,
2005-03-10, 02:34:00,VALID,918.928,VALID,0,VALID,98.2493,VALID,0,VALID,19.4596,VALID,98,VALID,0.487038,
2005-03-10, 02:35:00,VALID,918.934,VALID,0,VALID,98.173,VALID,-0.0169808,VALID,19.4861,VALID,115,VALID,0.551491,
2005-03-10, 02:36:00,VALID,918.942,VALID,0,VALID,98.1577,VALID,0,VALID,19.4953,VALID,132,VALID,0.378815,
2005-03-10, 02:37:00,VALID,918.952,VALID,0,VALID,98.2009,VALID,0,VALID,19.5214,VALID,121,VALID,0.413672,
2005-03-10, 02:38:00,VALID,918.95,VALID,0,VALID,98.131,VALID,-0.0169808,VALID,19.5368,VALID,115,VALID,0.297637,
2005-03-10, 02:39:00,VALID,918.965,VALID,0,VALID,97.986,VALID,0,VALID,19.5763,VALID,115,VALID,0.260121,
2005-03-10, 02:40:00,VALID,918.97,VALID,0,VALID,97.9415,VALID,0,VALID,19.5892,VALID,115,VALID,0.212209,
2005-03-10, 02:41:00,VALID,918.954,VALID,0,VALID,97.9021,VALID,0,VALID,19.5986,VALID,115,VALID,0.182413,
2005-03-10, 02:42:00,VALID,918.941,VALID,0,VALID,97.8652,VALID,-0.0169808,VALID,19.6083,VALID,112,VALID,0.408512,
2005-03-10, 02:43:00,VALID,918.925,VALID,0,VALID,97.7711,VALID,0,VALID,19.5947,VALID,110,VALID,0.336648,
2005-03-10, 02:44:00,VALID,918.917,VALID,0,VALID,97.7139,VALID,0,VALID,19.6046,VALID,95,VALID,0.453125,
2005-03-10, 02:45:00,VALID,918.916,VALID,0,VALID,97.6173,VALID,0,VALID,19.5982,VALID,73,VALID,0.572731,
2005-03-10, 02:46:00,VALID,918.904,VALID,0,VALID,97.5079,VALID,0,VALID,19.6046,VALID,63,VALID,0.281783,
2005-03-10, 02:47:00,VALID,918.918,VALID,0,VALID,97.4583,VALID,0.0339617,VALID,19.5947,VALID,63,VALID,0.249023,
2005-03-10, 02:48:00,VALID,918.926,VALID,0,VALID,97.5117,VALID,0,VALID,19.5753,VALID,60,VALID,0.298363,
2005-03-10, 02:49:00,VALID,918.94,VALID,0,VALID,97.6707,VALID,-0.0169808,VALID,19.5659,VALID,58,VALID,0.279474,
2005-03-10, 02:50:00,VALID,918.951,VALID,0,VALID,97.7775,VALID,-0.0169808,VALID,19.5567,VALID,57,VALID,0.381696,
2005-03-10, 02:51:00,VALID,918.965,VALID,0,VALID,97.9733,VALID,-0.0169808,VALID,19.5467,VALID,56,VALID,0.266387,
2005-03-10, 02:52:00,VALID,918.985,VALID,0,VALID,98.028,VALID,-0.0169808,VALID,19.5271,VALID,56,VALID,0.0854167,
2005-03-10, 02:53:00,VALID,919.014,VALID,0,VALID,98.0674,VALID,-0.0169808,VALID,19.5142,VALID,55,VALID,0.0441406,
2005-03-10, 02:54:00,VALID,919.009,VALID,0,VALID,98.2009,VALID,-0.0339617,VALID,19.5279,VALID,56,VALID,0,
2005-03-10, 02:55:00,VALID,919.007,VALID,0,VALID,98.2556,VALID,-0.0339617,VALID,19.5045,VALID,56,VALID,0,
2005-03-10, 02:56:00,VALID,918.996,VALID,0,VALID,98.3306,VALID,0,VALID,19.5043,VALID,56,VALID,0,
2005-03-10, 02:57:00,VALID,918.985,VALID,0,VALID,98.3701,VALID,-0.0169808,VALID,19.5082,VALID,56,VALID,0,
2005-03-10, 02:58:00,VALID,918.986,VALID,0,VALID,98.4146,VALID,-0.0169808,VALID,19.4946,VALID,56,VALID,0,
2005-03-10, 02:59:00,VALID,918.972,VALID,0,VALID,98.482,VALID,0,VALID,19.4981,VALID,56,VALID,0,
2005-03-10, 03:00:00,VALID,918.973,VALID,0,VALID,98.4959,VALID,-0.0169808,VALID,19.4988,VALID,56,VALID,0,
2005-03-10, 03:01:00,VALID,918.964,VALID,0,VALID,98.5494,VALID,-0.0169808,VALID,19.4789,VALID,56,VALID,0,
2005-03-10, 03:02:00,VALID,918.974,VALID,0,VALID,98.5608,VALID,0,VALID,19.4889,VALID,56,VALID,0,
2005-03-10, 03:03:00,VALID,918.978,VALID,0,VALID,98.5672,VALID,0,VALID,19.4789,VALID,56,VALID,0.0537574,
2005-03-10, 03:04:00,VALID,918.997,VALID,0,VALID,98.5163,VALID,0,VALID,19.4499,VALID,73,VALID,0.36849,
2005-03-10, 03:05:00,VALID,919.014,VALID,0,VALID,98.6346,VALID,0.0169808,VALID,19.4305,VALID,127,VALID,0.418555,
2005-03-10, 03:06:00,VALID,919.031,VALID,0,VALID,98.749,VALID,0,VALID,19.4109,VALID,142,VALID,0.61875,
2005-03-10, 03:07:00,VALID,919.035,VALID,0,VALID,98.7846,VALID,-0.0339617,VALID,19.4042,VALID,145,VALID,0.899891,
2005-03-10, 03:08:00,VALID,919.033,VALID,0,VALID,98.7668,VALID,0,VALID,19.4076,VALID,133,VALID,0.682454,
2005-03-10, 03:09:00,VALID,919.023,VALID,0,VALID,98.7337,VALID,0,VALID,19.4215,VALID,127,VALID,0.431868,
2005-03-10, 03:10:00,VALID,918.993,VALID,0,VALID,98.5659,VALID,-0.0169808,VALID,19.4084,VALID,108,VALID,0.513021,
2005-03-10, 03:11:00,VALID,918.971,VALID,0,VALID,98.6295,VALID,0,VALID,19.3624,VALID,85,VALID,0.741477,
2005-03-10, 03:12:00,VALID,918.94,VALID,0,VALID,98.8774,VALID,-0.0169808,VALID,19.3793,VALID,83,VALID,0.892223,
2005-03-10, 03:13:00,VALID,918.915,VALID,0,VALID,99.1406,VALID,-0.0169808,VALID,19.4017,VALID,84,VALID,0.768821,
2005-03-10, 03:14:00,VALID,918.915,VALID,0,VALID,99.3161,VALID,-0.0169808,VALID,19.4109,VALID,84,VALID,0.731357,
2005-03-10, 03:15:00,VALID,918.915,VALID,0,VALID,99.3924,VALID,0,VALID,19.4409,VALID,89,VALID,1.00937,
2005-03-10, 03:16:00,VALID,918.902,VALID,0,VALID,99.4102,VALID,-0.0169808,VALID,19.4566,VALID,94,VALID,0.942406,
2005-03-10, 03:17:00,VALID,918.894,VALID,0,VALID,99.3136,VALID,0,VALID,19.4764,VALID,87,VALID,0.671503,
2005-03-10, 03:18:00,VALID,918.876,VALID,0,VALID,99.4268,VALID,0,VALID,19.4856,VALID,96,VALID,1.02162,
2005-03-10, 03:19:00,VALID,918.854,VALID,0,VALID,99.5361,VALID,0,VALID,19.5115,VALID,110,VALID,1.00972,
2005-03-10, 03:20:00,VALID,918.847,VALID,0,VALID,99.5501,VALID,-0.0169808,VALID,19.5505,VALID,121,VALID,0.633956,
2005-03-10, 03:21:00,VALID,918.835,VALID,0,VALID,99.4268,VALID,-0.0339617,VALID,19.5534,VALID,128,VALID,0.805575,
2005-03-10, 03:22:00,VALID,918.825,VALID,0,VALID,99.353,VALID,-0.0169808,VALID,19.5668,VALID,128,VALID,0.951172,
2005-03-10, 03:23:00,VALID,918.811,VALID,0,VALID,99.2996,VALID,0,VALID,19.5308,VALID,129,VALID,1.0707,
2005-03-10, 03:24:00,VALID,918.808,VALID,0,VALID,99.2843,VALID,-0.0169808,VALID,19.4757,VALID,119,VALID,0.805246,
2005-03-10, 03:25:00,VALID,918.813,VALID,0,VALID,99.4077,VALID,0,VALID,19.4307,VALID,126,VALID,0.625372,
2005-03-10, 03:26:00,VALID,918.83,VALID,0,VALID,99.6264,VALID,-0.0169808,VALID,19.4049,VALID,105,VALID,0.614258,
2005-03-10, 03:27:00,VALID,918.825,VALID,0,VALID,99.6849,VALID,-0.0169808,VALID,19.3791,VALID,103,VALID,0.481707,
2005-03-10, 03:28:00,VALID,918.828,VALID,0,VALID,99.7828,VALID,0,VALID,19.3436,VALID,106,VALID,0.702934,
2005-03-10, 03:29:00,VALID,918.805,VALID,0,VALID,99.9964,VALID,0.0339617,VALID,19.3565,VALID,107,VALID,0.963481,
2005-03-10, 03:30:00,VALID,918.807,VALID,0,VALID,100,VALID,0,VALID,19.3691,VALID,112,VALID,0.862995,
2005-03-10, 03:31:00,VALID,918.806,VALID,0,VALID,100,VALID,0,VALID,19.3721,VALID,124,VALID,1.04469,
2005-03-10, 03:32:00,VALID,918.807,VALID,0,VALID,100,VALID,0,VALID,19.4081,VALID,135,VALID,1.05227,
2005-03-10, 03:33:00,VALID,918.817,VALID,0,VALID,100,VALID,0,VALID,19.424,VALID,137,VALID,1.07578,
2005-03-10, 03:34:00,VALID,918.834,VALID,0,VALID,100,VALID,-0.0169808,VALID,19.424,VALID,148,VALID,1.15288,
2005-03-10, 03:35:00,VALID,918.832,VALID,0,VALID,100,VALID,0,VALID,19.4471,VALID,152,VALID,1.20573,
2005-03-10, 03:36:00,VALID,918.836,VALID,0,VALID,100,VALID,0,VALID,19.4404,VALID,154,VALID,1.35391,
2005-03-10, 03:37:00,VALID,918.832,VALID,0,VALID,100,VALID,0,VALID,19.4633,VALID,165,VALID,0.974927,